Hourly Data Report for November 13, 2017

All times are specified in Local Standard Time (LST). Add 1 hour to adjust for Daylight Saving Time where and when it is observed.

DAWSON
YUKON TERRITORY

64°03'39.076" N
139°07'36.000" W
370.00 m
2100LRP
71966
WON

Download Data

Hourly Data (November 2017)
Hourly Data Report for November 13, 2017
Temp Definition
°C
Dew Point Temp Definition
°C
Rel Hum Definition
%
Wind Dir Definition
10's deg

Wind Spd Definition
km/h
Visibility Definition
km
Stn Press Definition
kPa
Hmdx Definition


Wind Chill Definition


Weather Definition


TIME
00:00 -18.3 -21.3 77 0 1   97.45   -19 LegendNANA
01:00 -18.2 -21.2 77   0   97.45     LegendNANA
02:00 -18.0 -21.1 77 0 1   97.45   -19 LegendNANA
03:00 -18.5 -21.3 78   0   97.46     LegendNANA
04:00 -18.4 -21.1 79   0   97.49     LegendNANA
05:00 -18.1 -20.8 80 22 3   97.48   -21 LegendNANA
06:00 -18.4 -21.2 79 23 1   97.50   -19 LegendNANA
07:00 -20.8 -23.8 77 5 1   97.51   -22 LegendNANA
08:00 -23.4 -26.5 75   0   97.56     LegendNANA
09:00 -24.3 -27.5 75   0   97.62     LegendNANA
10:00 -24.6 -27.9 74 9 2   97.64   -27 LegendNANA
11:00 -24.2 -27.5 74 9 1   97.70   -25 LegendNANA
12:00 -24.1 -27.4 74 10 4   97.74   -28 LegendNANA
13:00 -23.1 -26.4 74 13 1   97.77   -24 LegendNANA
14:00 -22.3 -25.7 74 9 3   97.77   -25 LegendNANA
15:00 -22.5 -25.9 74 0 1   97.79   -23 LegendNANA
16:00 -23.5 -26.8 74   0   97.79     LegendNANA
17:00 -24.2 -27.6 74   0   97.82     LegendNANA
18:00 -24.9 -28.4 73 5 2   97.86   -27 LegendNANA
19:00 -25.3 -28.7 73   0   97.93     LegendNANA
20:00 -25.2 -28.7 73 6 1   97.97   -26 LegendNANA
21:00 -25.2 -28.6 73 7 1   98.02   -26 LegendNANA
22:00 -24.7 -28.1 73 0 1   98.06   -26 LegendNANA
23:00 -24.8 -28.2 73   0   98.11     LegendNANA

Notes on Data Quality.

Legend

  • E = Estimated
  • M = Missing
  • NA = Not Available
  • ‡ = Partner data that is not subject to review by the National Climate Archives
Date modified: